TimeCDT,TemperatureF,Dew PointF,Humidity,Sea Level PressureIn,VisibilityMPH,Wind Direction,Wind SpeedMPH,Gust SpeedMPH,PrecipitationIn,Events,Conditions,WindDirDegrees,DateUTC
12:11 AM,72.3,66.4,82,30.17,10.0,SSW,3.5,-,N/A,,Clear,200,2013-07-17 05:11:00
12:31 AM,71.8,66.6,84,30.17,10.0,SSW,3.5,-,N/A,,Clear,210,2013-07-17 05:31:00
12:50 AM,71.6,66.7,85,30.17,10.0,SW,3.5,-,N/A,,Clear,220,2013-07-17 05:50:00
1:11 AM,71.1,66.7,86,30.17,10.0,SSW,3.5,-,N/A,,Clear,210,2013-07-17 06:11:00
1:31 AM,70.2,66.2,87,30.18,10.0,WNW,4.6,-,N/A,,Clear,290,2013-07-17 06:31:00
1:50 AM,67.3,65.3,93,30.18,10.0,WSW,3.5,-,N/A,,Clear,240,2013-07-17 06:50:00
2:11 AM,68.0,65.5,92,30.18,10.0,Calm,Calm,-,N/A,,Clear,0,2013-07-17 07:11:00
2:31 AM,67.6,65.5,93,30.19,10.0,West,3.5,-,N/A,,Clear,280,2013-07-17 07:31:00
2:51 AM,65.5,64.4,96,30.19,7.0,WNW,3.5,-,N/A,,Clear,300,2013-07-17 07:51:00
3:11 AM,66.0,64.6,95,30.19,10.0,Calm,Calm,-,N/A,,Clear,0,2013-07-17 08:11:00
3:31 AM,65.1,63.9,96,30.18,7.0,Calm,Calm,-,N/A,,Clear,0,2013-07-17 08:31:00
3:51 AM,64.4,63.1,96,30.18,7.0,Calm,Calm,-,N/A,,Clear,0,2013-07-17 08:51:00
4:11 AM,63.5,62.6,97,30.19,5.0,Calm,Calm,-,N/A,,Clear,0,2013-07-17 09:11:00
4:31 AM,63.7,63.0,97,30.18,2.5,Calm,Calm,-,N/A,,Clear,0,2013-07-17 09:31:00
4:50 AM,63.5,62.6,97,30.19,5.0,Calm,Calm,-,N/A,,Clear,0,2013-07-17 09:50:00
5:11 AM,62.8,62.2,98,30.19,3.0,Calm,Calm,-,N/A,,Scattered Clouds,0,2013-07-17 10:11:00
5:31 AM,61.9,61.5,99,30.19,7.0,Calm,Calm,-,N/A,,Scattered Clouds,0,2013-07-17 10:31:00
5:50 AM,61.7,61.2,98,30.19,7.0,Calm,Calm,-,N/A,,Clear,0,2013-07-17 10:50:00
6:11 AM,63.5,62.1,95,30.21,10.0,Calm,Calm,-,N/A,,Scattered Clouds,0,2013-07-17 11:11:00
6:31 AM,64.0,62.1,93,30.21,7.0,Calm,Calm,-,N/A,,Scattered Clouds,0,2013-07-17 11:31:00
6:50 AM,64.9,63.0,93,30.21,7.0,Calm,Calm,-,N/A,,Clear,0,2013-07-17 11:50:00
7:11 AM,66.6,63.5,90,30.21,5.0,North,3.5,-,N/A,,Clear,360,2013-07-17 12:11:00
7:31 AM,67.5,62.6,84,30.21,10.0,NNE,3.5,-,N/A,,Clear,30,2013-07-17 12:31:00
7:50 AM,68.9,63.0,81,30.21,10.0,NE,4.6,-,N/A,,Clear,40,2013-07-17 12:50:00
8:11 AM,69.8,62.8,78,30.21,10.0,ENE,5.8,-,N/A,,Clear,60,2013-07-17 13:11:00
8:31 AM,70.3,63.3,78,30.22,7.0,NE,4.6,-,N/A,,Clear,40,2013-07-17 13:31:00
8:50 AM,71.2,63.3,76,30.22,10.0,NE,3.5,-,N/A,,Clear,50,2013-07-17 13:50:00
9:11 AM,73.0,64.2,74,30.22,10.0,NNE,3.5,-,N/A,,Clear,20,2013-07-17 14:11:00
9:31 AM,73.4,63.5,71,30.22,10.0,ENE,3.5,-,N/A,,Clear,60,2013-07-17 14:31:00
9:50 AM,74.7,64.8,71,30.21,10.0,Calm,Calm,-,N/A,,Clear,0,2013-07-17 14:50:00
10:11 AM,74.7,64.6,71,30.21,10.0,Calm,Calm,-,N/A,,Clear,0,2013-07-17 15:11:00
10:31 AM,75.9,65.8,71,30.22,10.0,North,5.8,-,N/A,,Scattered Clouds,10,2013-07-17 15:31:00
10:50 AM,76.5,65.3,68,30.21,10.0,NNE,5.8,-,N/A,,Mostly Cloudy,20,2013-07-17 15:50:00
11:11 AM,77.0,65.1,67,30.20,10.0,East,5.8,-,N/A,,Scattered Clouds,80,2013-07-17 16:11:00
11:31 AM,77.9,66.0,67,30.20,10.0,NE,3.5,-,N/A,,Scattered Clouds,50,2013-07-17 16:31:00
11:50 AM,77.4,65.8,67,30.21,10.0,East,4.6,-,N/A,,Mostly Cloudy,90,2013-07-17 16:50:00
12:11 PM,78.1,66.9,68,30.21,7.0,East,4.6,-,N/A,,Overcast,100,2013-07-17 17:11:00
12:31 PM,78.8,67.3,68,30.21,7.0,North,4.6,-,N/A,,Overcast,10,2013-07-17 17:31:00
12:51 PM,80.4,67.8,65,30.21,7.0,Calm,Calm,-,N/A,,Overcast,0,2013-07-17 17:51:00
1:11 PM,81.1,67.6,63,30.20,10.0,East,3.5,-,N/A,,Scattered Clouds,100,2013-07-17 18:11:00
1:31 PM,80.2,67.6,65,30.19,7.0,Calm,Calm,-,N/A,,Scattered Clouds,0,2013-07-17 18:31:00
1:50 PM,81.7,68.4,64,30.18,7.0,SE,3.5,-,N/A,,Mostly Cloudy,140,2013-07-17 18:50:00
2:11 PM,82.8,68.7,62,30.17,10.0,Calm,Calm,-,N/A,,Scattered Clouds,0,2013-07-17 19:11:00
2:31 PM,83.1,68.9,62,30.17,10.0,Calm,Calm,-,N/A,,Scattered Clouds,0,2013-07-17 19:31:00
2:50 PM,84.6,70.3,62,30.16,10.0,North,5.8,-,N/A,,Mostly Cloudy,360,2013-07-17 19:50:00
3:11 PM,81.9,69.3,65,30.16,10.0,North,6.9,-,N/A,,Overcast,10,2013-07-17 20:11:00
3:31 PM,80.6,69.4,69,30.16,10.0,ENE,4.6,-,N/A,Rain,Light Rain,60,2013-07-17 20:31:00
3:50 PM,79.9,69.8,71,30.15,10.0,North,4.6,-,N/A,Rain,Rain,350,2013-07-17 20:50:00
4:11 PM,79.7,71.6,76,30.15,10.0,NE,3.5,-,N/A,Rain,Light Rain,50,2013-07-17 21:11:00
4:31 PM,78.6,70.5,76,30.14,10.0,Calm,Calm,-,N/A,Rain,Light Rain,0,2013-07-17 21:31:00
4:50 PM,78.8,70.7,76,30.15,10.0,Calm,Calm,-,N/A,Rain,Light Rain,0,2013-07-17 21:50:00
5:11 PM,77.0,72.1,85,30.14,10.0,North,4.6,-,N/A,Rain,Light Rain,350,2013-07-17 22:11:00
5:31 PM,77.4,71.8,83,30.14,10.0,North,4.6,-,N/A,Rain,Light Rain,10,2013-07-17 22:31:00
5:50 PM,79.7,71.6,76,30.13,10.0,North,8.1,-,0.01,,Scattered Clouds,360,2013-07-17 22:50:00
6:11 PM,80.4,71.1,73,30.13,10.0,NE,4.6,-,N/A,,Scattered Clouds,40,2013-07-17 23:11:00
6:31 PM,81.0,70.0,69,30.13,7.0,NNE,5.8,-,N/A,,Mostly Cloudy,20,2013-07-17 23:31:00
6:50 PM,79.7,70.0,72,30.12,10.0,North,4.6,-,N/A,,Scattered Clouds,10,2013-07-17 23:50:00
7:11 PM,78.6,68.9,72,30.12,10.0,North,5.8,-,N/A,,Scattered Clouds,10,2013-07-18 00:11:00
7:31 PM,76.5,68.0,75,30.12,10.0,North,6.9,-,N/A,,Mostly Cloudy,360,2013-07-18 00:31:00
7:50 PM,75.6,67.8,77,30.12,10.0,NNW,4.6,-,N/A,Rain-Thunderstorm,Light Thunderstorms and Rain,340,2013-07-18 00:50:00
8:11 PM,71.8,67.6,87,30.12,1.2,NW,3.5,-,N/A,Rain-Thunderstorm,Heavy Thunderstorms and Rain,320,2013-07-18 01:11:00
8:31 PM,71.6,68.5,90,30.12,10.0,NNE,5.8,-,N/A,Thunderstorm,Mostly Cloudy,30,2013-07-18 01:31:00
8:50 PM,71.6,68.7,91,30.12,10.0,NNE,3.5,-,0.01,Thunderstorm,Scattered Clouds,30,2013-07-18 01:50:00
9:11 PM,71.1,68.9,93,30.12,10.0,NW,3.5,-,N/A,,Scattered Clouds,320,2013-07-18 02:11:00
9:31 PM,70.7,68.9,94,30.12,10.0,Calm,Calm,-,0.01,,Light Drizzle,0,2013-07-18 02:31:00
9:50 PM,70.5,68.4,93,30.13,10.0,WNW,5.8,-,0.01,,Scattered Clouds,290,2013-07-18 02:50:00
10:11 PM,70.0,68.2,94,30.12,5.0,Calm,Calm,-,N/A,,Mostly Cloudy,0,2013-07-18 03:11:00
10:31 PM,69.8,68.2,95,30.12,10.0,ENE,3.5,-,0.01,,Overcast,60,2013-07-18 03:31:00
10:50 PM,69.1,68.2,97,30.12,7.0,NE,3.5,-,0.01,,Mostly Cloudy,50,2013-07-18 03:50:00
11:11 PM,68.2,67.5,98,30.11,10.0,ENE,3.5,-,N/A,,Scattered Clouds,70,2013-07-18 04:11:00
11:31 PM,68.9,67.5,95,30.10,10.0,East,4.6,-,N/A,,Clear,80,2013-07-18 04:31:00
11:50 PM,68.4,67.3,96,30.10,10.0,ENE,4.6,-,N/A,,Clear,70,2013-07-18 04:50:00